Year,Month,Day,Hour,Minute,Value (Times are PST for temperature in C)
2014,07,14,00,00,19.50
2014,07,14,00,01,19.50
2014,07,14,00,02,19.40
2014,07,14,00,03,19.40
2014,07,14,00,04,19.40
2014,07,14,00,05,19.40
2014,07,14,00,06,19.40
2014,07,14,00,07,19.30
2014,07,14,00,08,19.30
2014,07,14,00,09,19.30
2014,07,14,00,10,19.30
2014,07,14,00,11,19.30
2014,07,14,00,12,19.30
2014,07,14,00,13,19.30
2014,07,14,00,14,19.30
2014,07,14,00,15,19.30
2014,07,14,00,16,19.30
2014,07,14,00,17,19.30
2014,07,14,00,18,19.30
2014,07,14,00,19,19.30
2014,07,14,00,20,19.30
2014,07,14,00,21,19.30
2014,07,14,00,22,19.30
2014,07,14,00,23,19.20
2014,07,14,00,24,19.20
2014,07,14,00,25,19.20
2014,07,14,00,26,19.10
2014,07,14,00,27,19.10
2014,07,14,00,28,19.10
2014,07,14,00,29,19.00
2014,07,14,00,30,19.00
2014,07,14,00,31,19.00
2014,07,14,00,32,18.90
2014,07,14,00,33,18.90
2014,07,14,00,34,18.90
2014,07,14,00,35,18.80
2014,07,14,00,36,18.80
2014,07,14,00,37,18.80
2014,07,14,00,38,18.80
2014,07,14,00,39,18.70
2014,07,14,00,40,18.70
2014,07,14,00,41,18.70
2014,07,14,00,42,18.60
2014,07,14,00,43,18.60
2014,07,14,00,44,18.60
2014,07,14,00,45,18.50
2014,07,14,00,46,18.50
2014,07,14,00,47,18.40
2014,07,14,00,48,18.40
2014,07,14,00,49,18.40
2014,07,14,00,50,18.40
2014,07,14,00,51,18.40
2014,07,14,00,52,18.40
2014,07,14,00,53,18.40
2014,07,14,00,54,18.40
2014,07,14,00,55,18.40
2014,07,14,00,56,18.40
2014,07,14,00,57,18.40
2014,07,14,00,58,18.40
2014,07,14,00,59,18.40
2014,07,14,01,00,18.40
2014,07,14,01,01,18.40
2014,07,14,01,02,18.50
2014,07,14,01,03,18.50
2014,07,14,01,04,18.50
2014,07,14,01,05,18.50
2014,07,14,01,06,18.50
2014,07,14,01,07,18.50
2014,07,14,01,08,18.50
2014,07,14,01,09,18.50
2014,07,14,01,10,18.50
2014,07,14,01,11,18.50
2014,07,14,01,12,18.40
2014,07,14,01,13,18.40
2014,07,14,01,14,18.40
2014,07,14,01,15,18.40
2014,07,14,01,16,18.40
2014,07,14,01,17,18.30
2014,07,14,01,18,18.30
2014,07,14,01,19,18.30
2014,07,14,01,20,18.30
2014,07,14,01,21,18.30
2014,07,14,01,22,18.30
2014,07,14,01,23,18.30
2014,07,14,01,24,18.30
2014,07,14,01,25,18.30
2014,07,14,01,26,18.30
2014,07,14,01,27,18.30
2014,07,14,01,28,18.30
2014,07,14,01,29,18.30
2014,07,14,01,30,18.30
2014,07,14,01,31,18.30
2014,07,14,01,32,18.30
2014,07,14,01,33,18.30
2014,07,14,01,34,18.30
2014,07,14,01,35,18.30
2014,07,14,01,36,18.30
2014,07,14,01,37,18.30
2014,07,14,01,38,18.30
2014,07,14,01,39,18.30
2014,07,14,01,40,18.30
2014,07,14,01,41,18.30
2014,07,14,01,42,18.30
2014,07,14,01,43,18.20
2014,07,14,01,44,18.20
2014,07,14,01,45,18.10
2014,07,14,01,46,18.10
2014,07,14,01,47,18.10
2014,07,14,01,48,18.10
2014,07,14,01,49,18.00
2014,07,14,01,50,18.00
2014,07,14,01,51,18.00
2014,07,14,01,52,17.90
2014,07,14,01,53,17.90
2014,07,14,01,54,17.90
2014,07,14,01,55,17.90
2014,07,14,01,56,17.80
2014,07,14,01,57,17.80
2014,07,14,01,58,17.80
2014,07,14,01,59,17.80
2014,07,14,02,00,17.80
2014,07,14,02,01,17.80
2014,07,14,02,02,17.70
2014,07,14,02,03,17.70
2014,07,14,02,04,17.70
2014,07,14,02,05,17.70
2014,07,14,02,06,17.70
2014,07,14,02,07,17.70
2014,07,14,02,08,17.60
2014,07,14,02,09,17.60
2014,07,14,02,10,17.60
2014,07,14,02,11,17.60
2014,07,14,02,12,17.60
2014,07,14,02,13,17.60
2014,07,14,02,14,17.60
2014,07,14,02,15,17.50
2014,07,14,02,16,17.50
2014,07,14,02,17,17.50
2014,07,14,02,18,17.50
2014,07,14,02,19,17.50
2014,07,14,02,20,17.50
2014,07,14,02,21,17.50
2014,07,14,02,22,17.50
2014,07,14,02,23,17.50
2014,07,14,02,24,17.50
2014,07,14,02,25,17.50
2014,07,14,02,26,17.60
2014,07,14,02,27,17.60
2014,07,14,02,28,17.60
2014,07,14,02,29,17.60
2014,07,14,02,30,17.60
2014,07,14,02,31,17.60
2014,07,14,02,32,17.60
2014,07,14,02,33,17.70
2014,07,14,02,34,17.70
2014,07,14,02,35,17.70
2014,07,14,02,36,17.70
2014,07,14,02,37,17.70
2014,07,14,02,38,17.70
2014,07,14,02,39,17.70
2014,07,14,02,40,17.70
2014,07,14,02,41,17.70
2014,07,14,02,42,17.70
2014,07,14,02,43,17.70
2014,07,14,02,44,17.70
2014,07,14,02,45,17.70
2014,07,14,02,46,17.70
2014,07,14,02,47,17.60
2014,07,14,02,48,17.60
2014,07,14,02,49,17.60
2014,07,14,02,50,17.60
2014,07,14,02,51,17.60
2014,07,14,02,52,17.60
2014,07,14,02,53,17.60
2014,07,14,02,54,17.60
2014,07,14,02,55,17.60
2014,07,14,02,56,17.60
2014,07,14,02,57,17.60
2014,07,14,02,58,17.60
2014,07,14,02,59,17.60
2014,07,14,03,00,17.60
2014,07,14,03,01,17.50
2014,07,14,03,02,17.50
2014,07,14,03,03,17.50
2014,07,14,03,04,17.50
2014,07,14,03,05,17.40
2014,07,14,03,06,17.40
2014,07,14,03,07,17.40
2014,07,14,03,08,17.40
2014,07,14,03,09,17.40
2014,07,14,03,10,17.30
2014,07,14,03,11,17.30
2014,07,14,03,12,17.30
2014,07,14,03,13,17.30
2014,07,14,03,14,17.30
2014,07,14,03,15,17.30
2014,07,14,03,16,17.30
2014,07,14,03,17,17.30
2014,07,14,03,18,17.30
2014,07,14,03,19,17.30
2014,07,14,03,20,17.30
2014,07,14,03,21,17.20
2014,07,14,03,22,17.20
2014,07,14,03,23,17.20
2014,07,14,03,24,17.20
2014,07,14,03,25,17.20
2014,07,14,03,26,17.10
2014,07,14,03,27,17.10
2014,07,14,03,28,17.10
2014,07,14,03,29,17.10
2014,07,14,03,30,17.00
2014,07,14,03,31,17.00
2014,07,14,03,32,17.00
2014,07,14,03,33,17.00
2014,07,14,03,34,17.00
2014,07,14,03,35,16.90
2014,07,14,03,36,16.90
2014,07,14,03,37,16.90
2014,07,14,03,38,16.90
2014,07,14,03,39,16.90
2014,07,14,03,40,16.80
2014,07,14,03,41,16.80
2014,07,14,03,42,16.80
2014,07,14,03,43,16.80
2014,07,14,03,44,16.80
2014,07,14,03,45,16.80
2014,07,14,03,46,16.80
2014,07,14,03,47,16.70
2014,07,14,03,48,16.70
2014,07,14,03,49,16.70
2014,07,14,03,50,16.70
2014,07,14,03,51,16.70
2014,07,14,03,52,16.70
2014,07,14,03,53,16.60
2014,07,14,03,54,16.60
2014,07,14,03,55,16.60
2014,07,14,03,56,16.60
2014,07,14,03,57,16.60
2014,07,14,03,58,16.60
2014,07,14,03,59,16.60
2014,07,14,04,00,16.60
2014,07,14,04,01,16.50
2014,07,14,04,02,16.50
2014,07,14,04,03,16.50
2014,07,14,04,04,16.40
2014,07,14,04,05,16.40
2014,07,14,04,06,16.40
2014,07,14,04,07,16.40
2014,07,14,04,08,16.40
2014,07,14,04,09,16.40
2014,07,14,04,10,16.30
2014,07,14,04,11,16.30
2014,07,14,04,12,16.30
2014,07,14,04,13,16.30
2014,07,14,04,14,16.30
2014,07,14,04,15,16.30
2014,07,14,04,16,16.30
2014,07,14,04,17,16.20
2014,07,14,04,18,16.20
2014,07,14,04,19,16.10
2014,07,14,04,20,16.00
2014,07,14,04,21,16.00
2014,07,14,04,22,15.90
2014,07,14,04,23,15.80
2014,07,14,04,24,15.70
2014,07,14,04,25,15.60
2014,07,14,04,26,15.50
2014,07,14,04,27,15.40
2014,07,14,04,28,15.30
2014,07,14,04,29,15.20
2014,07,14,04,30,15.10
2014,07,14,04,31,15.00
2014,07,14,04,32,14.90
2014,07,14,04,33,14.80
2014,07,14,04,34,14.70
2014,07,14,04,35,14.70
2014,07,14,04,36,14.60
2014,07,14,04,37,14.50
2014,07,14,04,38,14.50
2014,07,14,04,39,14.40
2014,07,14,04,40,14.40
2014,07,14,04,41,14.30
2014,07,14,04,42,14.30
2014,07,14,04,43,14.30
2014,07,14,04,44,14.20
2014,07,14,04,45,14.20
2014,07,14,04,46,14.20
2014,07,14,04,47,14.10
2014,07,14,04,48,14.10
2014,07,14,04,49,14.10
2014,07,14,04,50,14.10
2014,07,14,04,51,14.00
2014,07,14,04,52,14.00
2014,07,14,04,53,14.00
2014,07,14,04,54,14.00
2014,07,14,04,55,14.00
2014,07,14,04,56,14.00
2014,07,14,04,57,13.90
2014,07,14,04,58,13.90
2014,07,14,04,59,13.90
2014,07,14,05,00,13.90
2014,07,14,05,01,13.90
2014,07,14,05,02,13.90
2014,07,14,05,03,13.90
2014,07,14,05,04,13.90
2014,07,14,05,05,13.80
2014,07,14,05,06,13.80
2014,07,14,05,07,13.80
2014,07,14,05,08,13.80
2014,07,14,05,09,13.80
2014,07,14,05,10,13.80
2014,07,14,05,11,13.80
2014,07,14,05,12,13.80
2014,07,14,05,13,13.80
2014,07,14,05,14,13.80
2014,07,14,05,15,13.80
2014,07,14,05,16,13.80
2014,07,14,05,17,13.80
2014,07,14,05,18,13.80
2014,07,14,05,19,13.80
2014,07,14,05,20,13.80
2014,07,14,05,21,13.80
2014,07,14,05,22,13.80
2014,07,14,05,23,13.80
2014,07,14,05,24,13.80
2014,07,14,05,25,13.80
2014,07,14,05,26,13.80
2014,07,14,05,27,13.80
2014,07,14,05,28,13.80
2014,07,14,05,29,13.80
2014,07,14,05,30,13.80
2014,07,14,05,31,13.80
2014,07,14,05,32,13.80
2014,07,14,05,33,13.80
2014,07,14,05,34,13.80
2014,07,14,05,35,13.80
2014,07,14,05,36,13.70
2014,07,14,05,37,13.70
2014,07,14,05,38,13.70
2014,07,14,05,39,13.70
2014,07,14,05,40,13.70
2014,07,14,05,41,13.70
2014,07,14,05,42,13.70
2014,07,14,05,43,13.70
2014,07,14,05,44,13.70
2014,07,14,05,45,13.70
2014,07,14,05,46,13.70
2014,07,14,05,47,13.70
2014,07,14,05,48,13.60
2014,07,14,05,49,13.60
2014,07,14,05,50,13.60
2014,07,14,05,51,13.60
2014,07,14,05,52,13.60
2014,07,14,05,53,13.60
2014,07,14,05,54,13.60
2014,07,14,05,55,13.60
2014,07,14,05,56,13.60
2014,07,14,05,57,13.60
2014,07,14,05,58,13.60
2014,07,14,05,59,13.60
2014,07,14,06,00,13.50
2014,07,14,06,01,13.50
2014,07,14,06,02,13.50
2014,07,14,06,03,13.50
2014,07,14,06,04,13.40
2014,07,14,06,05,13.50
2014,07,14,06,06,13.50
2014,07,14,06,07,13.50
2014,07,14,06,08,13.50
2014,07,14,06,09,13.50
2014,07,14,06,10,13.50
2014,07,14,06,11,13.50
2014,07,14,06,12,13.60
2014,07,14,06,13,13.60
2014,07,14,06,14,13.60
2014,07,14,06,15,13.60
2014,07,14,06,16,13.60
2014,07,14,06,17,13.70
2014,07,14,06,18,13.70
2014,07,14,06,19,13.70
2014,07,14,06,20,13.70
2014,07,14,06,21,13.70
2014,07,14,06,22,13.80
2014,07,14,06,23,13.80
2014,07,14,06,24,13.80
2014,07,14,06,25,13.80
2014,07,14,06,26,13.80
2014,07,14,06,27,13.80
2014,07,14,06,28,13.80
2014,07,14,06,29,13.70
2014,07,14,06,30,13.70
2014,07,14,06,31,13.70
2014,07,14,06,32,13.70
2014,07,14,06,33,13.70
2014,07,14,06,34,13.60
2014,07,14,06,35,13.60
2014,07,14,06,36,13.60
2014,07,14,06,37,13.60
2014,07,14,06,38,13.60
2014,07,14,06,39,13.60
2014,07,14,06,40,13.60
2014,07,14,06,41,13.60
2014,07,14,06,42,13.60
2014,07,14,06,43,13.50
2014,07,14,06,44,13.50
2014,07,14,06,45,13.40
2014,07,14,06,46,13.40
2014,07,14,06,47,13.30
2014,07,14,06,48,13.30
2014,07,14,06,49,13.30
2014,07,14,06,50,13.30
2014,07,14,06,51,13.30
2014,07,14,06,52,13.30
2014,07,14,06,53,13.30
2014,07,14,06,54,13.30
2014,07,14,06,55,13.40
2014,07,14,06,56,13.40
2014,07,14,06,57,13.40
2014,07,14,06,58,13.40
2014,07,14,06,59,13.50
2014,07,14,07,00,13.50
2014,07,14,07,01,13.60
2014,07,14,07,02,13.60
2014,07,14,07,03,13.60
2014,07,14,07,04,13.60
2014,07,14,07,05,13.70
2014,07,14,07,06,13.70
2014,07,14,07,07,13.70
2014,07,14,07,08,13.80
2014,07,14,07,09,13.80
2014,07,14,07,10,13.80
2014,07,14,07,11,13.80
2014,07,14,07,12,13.80
2014,07,14,07,13,13.80
2014,07,14,07,14,13.90
2014,07,14,07,15,13.90
2014,07,14,07,16,13.90
2014,07,14,07,17,14.00
2014,07,14,07,18,14.00
2014,07,14,07,19,14.10
2014,07,14,07,20,14.10
2014,07,14,07,21,14.10
2014,07,14,07,22,14.20
2014,07,14,07,23,14.20
2014,07,14,07,24,14.30
2014,07,14,07,25,14.30
2014,07,14,07,26,14.40
2014,07,14,07,27,14.40
2014,07,14,07,28,14.50
2014,07,14,07,29,14.60
2014,07,14,07,30,14.60
2014,07,14,07,31,14.70
2014,07,14,07,32,14.70
2014,07,14,07,33,14.80
2014,07,14,07,34,14.80
2014,07,14,07,35,14.80
2014,07,14,07,36,14.90
2014,07,14,07,37,14.90
2014,07,14,07,38,15.00
2014,07,14,07,39,15.00
2014,07,14,07,40,15.00
2014,07,14,07,41,15.10
2014,07,14,07,42,15.10
2014,07,14,07,43,15.10
2014,07,14,07,44,15.20
2014,07,14,07,45,15.20
2014,07,14,07,46,15.30
2014,07,14,07,47,15.30
2014,07,14,07,48,15.40
2014,07,14,07,49,15.40
2014,07,14,07,50,15.40
2014,07,14,07,51,15.50
2014,07,14,07,52,15.50
2014,07,14,07,53,15.60
2014,07,14,07,54,15.60
2014,07,14,07,55,15.60
2014,07,14,07,56,15.70
2014,07,14,07,57,15.70
2014,07,14,07,58,15.80
2014,07,14,07,59,15.80
2014,07,14,08,00,15.80
2014,07,14,08,01,15.80
2014,07,14,08,02,15.80
2014,07,14,08,03,15.80
2014,07,14,08,04,15.80
2014,07,14,08,05,15.80
2014,07,14,08,06,15.80
2014,07,14,08,07,15.80
2014,07,14,08,08,15.80
2014,07,14,08,09,15.80
2014,07,14,08,10,15.80
2014,07,14,08,11,15.80
2014,07,14,08,12,15.90
2014,07,14,08,13,15.90
2014,07,14,08,14,15.90
2014,07,14,08,15,16.00
2014,07,14,08,16,16.00
2014,07,14,08,17,16.10
2014,07,14,08,18,16.20
2014,07,14,08,19,16.30
2014,07,14,08,20,16.40
2014,07,14,08,21,16.50
2014,07,14,08,22,16.60
2014,07,14,08,23,16.70
2014,07,14,08,24,16.80
2014,07,14,08,25,16.90
2014,07,14,08,26,17.00
2014,07,14,08,27,17.10
2014,07,14,08,28,17.20
2014,07,14,08,29,17.30
2014,07,14,08,30,17.40
2014,07,14,08,31,17.50
2014,07,14,08,32,17.60
2014,07,14,08,33,17.60
2014,07,14,08,34,17.70
2014,07,14,08,35,17.80
2014,07,14,08,36,17.90
2014,07,14,08,37,18.00
2014,07,14,08,38,18.10
2014,07,14,08,39,18.20
2014,07,14,08,40,18.30
2014,07,14,08,41,18.40
2014,07,14,08,42,18.50
2014,07,14,08,43,18.50
2014,07,14,08,44,18.60
2014,07,14,08,45,18.60
2014,07,14,08,46,18.60
2014,07,14,08,47,18.60
2014,07,14,08,48,18.60
2014,07,14,08,49,18.60
2014,07,14,08,50,18.60
2014,07,14,08,51,18.50
2014,07,14,08,52,18.50
2014,07,14,08,53,18.50
2014,07,14,08,54,18.50
2014,07,14,08,55,18.50
2014,07,14,08,56,18.50
2014,07,14,08,57,18.50
2014,07,14,08,58,18.50
2014,07,14,08,59,18.60
2014,07,14,09,00,18.60
2014,07,14,09,01,18.70
2014,07,14,09,02,18.70
2014,07,14,09,03,18.80
2014,07,14,09,04,18.80
2014,07,14,09,05,18.90
2014,07,14,09,06,18.90
2014,07,14,09,07,19.00
2014,07,14,09,08,19.00
2014,07,14,09,09,19.10
2014,07,14,09,10,19.10
2014,07,14,09,11,19.10
2014,07,14,09,12,19.20
2014,07,14,09,13,19.20
2014,07,14,09,14,19.20
2014,07,14,09,15,19.20
2014,07,14,09,16,19.30
2014,07,14,09,17,19.30
2014,07,14,09,18,19.30
2014,07,14,09,19,19.40
2014,07,14,09,20,19.40
2014,07,14,09,21,19.40
2014,07,14,09,22,19.50
2014,07,14,09,23,19.60
2014,07,14,09,24,19.60
2014,07,14,09,25,19.70
2014,07,14,09,26,19.80
2014,07,14,09,27,19.80
2014,07,14,09,28,19.90
2014,07,14,09,29,19.90
2014,07,14,09,30,20.00
2014,07,14,09,31,20.10
2014,07,14,09,32,20.20
2014,07,14,09,33,20.20
2014,07,14,09,34,20.30
2014,07,14,09,35,20.30
2014,07,14,09,36,20.40
2014,07,14,09,37,20.40
2014,07,14,09,38,20.50
2014,07,14,09,39,20.50
2014,07,14,09,40,20.60
2014,07,14,09,41,20.60
2014,07,14,09,42,20.60
2014,07,14,09,43,20.60
2014,07,14,09,44,20.70
2014,07,14,09,45,20.70
2014,07,14,09,46,20.70
2014,07,14,09,47,20.80
2014,07,14,09,48,20.80
2014,07,14,09,49,20.80
2014,07,14,09,50,20.80
2014,07,14,09,51,20.80
2014,07,14,09,52,20.80
2014,07,14,09,53,20.80
2014,07,14,09,54,20.90
2014,07,14,09,55,20.90
2014,07,14,09,56,20.90
2014,07,14,09,57,20.90
2014,07,14,09,58,21.00
2014,07,14,09,59,21.00
2014,07,14,10,00,21.10
2014,07,14,10,01,21.20
2014,07,14,10,02,21.30
2014,07,14,10,03,21.40
2014,07,14,10,04,21.40
2014,07,14,10,05,21.50
2014,07,14,10,06,21.60
2014,07,14,10,07,21.70
2014,07,14,10,08,21.80
2014,07,14,10,09,21.90
2014,07,14,10,10,21.90
2014,07,14,10,11,22.00
2014,07,14,10,12,22.10
2014,07,14,10,13,22.10
2014,07,14,10,14,22.20
2014,07,14,10,15,22.20
2014,07,14,10,16,22.30
2014,07,14,10,17,22.30
2014,07,14,10,18,22.30
2014,07,14,10,19,22.30
2014,07,14,10,20,22.40
2014,07,14,10,21,22.40
2014,07,14,10,22,22.40
2014,07,14,10,23,22.50
2014,07,14,10,24,22.50
2014,07,14,10,25,22.60
2014,07,14,10,26,22.70
2014,07,14,10,27,22.70
2014,07,14,10,28,22.70
2014,07,14,10,29,22.80
2014,07,14,10,30,22.90
2014,07,14,10,31,22.90
2014,07,14,10,32,22.90
2014,07,14,10,33,23.00
2014,07,14,10,34,23.00
2014,07,14,10,35,23.00
2014,07,14,10,36,23.10
2014,07,14,10,37,23.10
2014,07,14,10,38,23.10
2014,07,14,10,39,23.10
2014,07,14,10,40,23.10
2014,07,14,10,41,23.10
2014,07,14,10,42,23.10
2014,07,14,10,43,23.10
2014,07,14,10,44,23.10
2014,07,14,10,45,23.10
2014,07,14,10,46,23.10
2014,07,14,10,47,23.20
2014,07,14,10,48,23.20
2014,07,14,10,49,23.30
2014,07,14,10,50,23.30
2014,07,14,10,51,23.30
2014,07,14,10,52,23.40
2014,07,14,10,53,23.50
2014,07,14,10,54,23.50
2014,07,14,10,55,23.60
2014,07,14,10,56,23.60
2014,07,14,10,57,23.70
2014,07,14,10,58,23.70
2014,07,14,10,59,23.80
2014,07,14,11,00,23.80
2014,07,14,11,01,23.80
2014,07,14,11,02,23.90
2014,07,14,11,03,23.90
2014,07,14,11,04,24.00
2014,07,14,11,05,24.00
2014,07,14,11,06,24.00
2014,07,14,11,07,24.00
2014,07,14,11,08,24.10
2014,07,14,11,09,24.10
2014,07,14,11,10,24.10
2014,07,14,11,11,24.10
2014,07,14,11,12,24.20
2014,07,14,11,13,24.20
2014,07,14,11,14,24.20
2014,07,14,11,15,24.30
2014,07,14,11,16,24.40
2014,07,14,11,17,24.40
2014,07,14,11,18,24.50
2014,07,14,11,19,24.50
2014,07,14,11,20,24.60
2014,07,14,11,21,24.60
2014,07,14,11,22,24.60
2014,07,14,11,23,24.70
2014,07,14,11,24,24.70
2014,07,14,11,25,24.70
2014,07,14,11,26,24.70
2014,07,14,11,27,24.70
2014,07,14,11,28,24.60
2014,07,14,11,29,24.60
2014,07,14,11,30,24.50
2014,07,14,11,31,24.40
2014,07,14,11,32,24.40
2014,07,14,11,33,24.40
2014,07,14,11,34,24.40
2014,07,14,11,35,24.40
2014,07,14,11,36,24.30
2014,07,14,11,37,24.30
2014,07,14,11,38,24.30
2014,07,14,11,39,24.30
2014,07,14,11,40,24.30
2014,07,14,11,41,24.30
2014,07,14,11,42,24.30
2014,07,14,11,43,24.30
2014,07,14,11,44,24.30
2014,07,14,11,45,24.20
2014,07,14,11,46,24.10
2014,07,14,11,47,24.10
2014,07,14,11,48,24.10
2014,07,14,11,49,24.00
2014,07,14,11,50,23.90
2014,07,14,11,51,23.90
2014,07,14,11,52,23.90
2014,07,14,11,53,23.90
2014,07,14,11,54,24.00
2014,07,14,11,55,24.00
2014,07,14,11,56,24.00
2014,07,14,11,57,24.10
2014,07,14,11,58,24.10
2014,07,14,11,59,24.10
2014,07,14,12,00,24.10
2014,07,14,12,01,24.10
2014,07,14,12,02,24.10
2014,07,14,12,03,24.10
2014,07,14,12,04,24.10
2014,07,14,12,05,24.10
2014,07,14,12,06,24.10
2014,07,14,12,07,24.10
2014,07,14,12,08,24.20
2014,07,14,12,09,24.20
2014,07,14,12,10,24.20
2014,07,14,12,11,24.20
2014,07,14,12,12,24.20
2014,07,14,12,13,24.20
2014,07,14,12,14,24.30
2014,07,14,12,15,24.30
2014,07,14,12,16,24.30
2014,07,14,12,17,24.40
2014,07,14,12,18,24.40
2014,07,14,12,19,24.50
2014,07,14,12,20,24.50
2014,07,14,12,21,24.60
2014,07,14,12,22,24.60
2014,07,14,12,23,24.70
2014,07,14,12,24,24.70
2014,07,14,12,25,24.70
2014,07,14,12,26,24.80
2014,07,14,12,27,24.80
2014,07,14,12,28,24.80
2014,07,14,12,29,24.70
2014,07,14,12,30,24.70
2014,07,14,12,31,24.70
2014,07,14,12,32,24.80
2014,07,14,12,33,24.80
2014,07,14,12,34,24.80
2014,07,14,12,35,24.80
2014,07,14,12,36,24.80
2014,07,14,12,37,24.80
2014,07,14,12,38,24.80
2014,07,14,12,39,24.80
2014,07,14,12,40,24.80
2014,07,14,12,41,24.70
2014,07,14,12,42,24.70
2014,07,14,12,43,24.80
2014,07,14,12,44,24.80
2014,07,14,12,45,24.90
2014,07,14,12,46,25.00
2014,07,14,12,47,25.00
2014,07,14,12,48,25.00
2014,07,14,12,49,25.10
2014,07,14,12,50,25.10
2014,07,14,12,51,25.10
2014,07,14,12,52,25.20
2014,07,14,12,53,25.20
2014,07,14,12,54,25.20
2014,07,14,12,55,25.20
2014,07,14,12,56,25.30
2014,07,14,12,57,25.30
2014,07,14,12,58,25.30
2014,07,14,12,59,25.40
2014,07,14,13,00,25.40
2014,07,14,13,01,25.40
2014,07,14,13,02,25.40
2014,07,14,13,03,25.40
2014,07,14,13,04,25.40
2014,07,14,13,05,25.40
2014,07,14,13,06,25.40
2014,07,14,13,07,25.40
2014,07,14,13,08,25.40
2014,07,14,13,09,25.40
2014,07,14,13,10,25.40
2014,07,14,13,11,25.40
2014,07,14,13,12,25.30
2014,07,14,13,13,25.30
2014,07,14,13,14,25.30
2014,07,14,13,15,25.30
2014,07,14,13,16,25.30
2014,07,14,13,17,25.30
2014,07,14,13,18,25.30
2014,07,14,13,19,25.30
2014,07,14,13,20,25.30
2014,07,14,13,21,25.30
2014,07,14,13,22,25.30
2014,07,14,13,23,25.30
2014,07,14,13,24,25.40
2014,07,14,13,25,25.40
2014,07,14,13,26,25.50
2014,07,14,13,27,25.50
2014,07,14,13,28,25.40
2014,07,14,13,29,25.40
2014,07,14,13,30,25.40
2014,07,14,13,31,25.40
2014,07,14,13,32,25.50
2014,07,14,13,33,25.50
2014,07,14,13,34,25.50
2014,07,14,13,35,25.40
2014,07,14,13,36,25.40
2014,07,14,13,37,25.30
2014,07,14,13,38,25.20
2014,07,14,13,39,25.10
2014,07,14,13,40,25.10
2014,07,14,13,41,25.00
2014,07,14,13,42,25.00
2014,07,14,13,43,24.90
2014,07,14,13,44,24.80
2014,07,14,13,45,24.70
2014,07,14,13,46,24.70
2014,07,14,13,47,24.60
2014,07,14,13,48,24.60
2014,07,14,13,49,24.50
2014,07,14,13,50,24.40
2014,07,14,13,51,24.30
2014,07,14,13,52,24.30
2014,07,14,13,53,24.30
2014,07,14,13,54,24.30
2014,07,14,13,55,24.40
2014,07,14,13,56,24.40
2014,07,14,13,57,24.40
2014,07,14,13,58,24.40
2014,07,14,13,59,24.50
2014,07,14,14,00,24.50
2014,07,14,14,01,24.60
2014,07,14,14,02,24.60
2014,07,14,14,03,24.70
2014,07,14,14,04,24.80
2014,07,14,14,05,24.90
2014,07,14,14,06,24.90
2014,07,14,14,07,25.00
2014,07,14,14,08,25.10
2014,07,14,14,09,25.10
2014,07,14,14,10,25.10
2014,07,14,14,11,25.10
2014,07,14,14,12,25.20
2014,07,14,14,13,25.20
2014,07,14,14,14,25.30
2014,07,14,14,15,25.30
2014,07,14,14,16,25.40
2014,07,14,14,17,25.40
2014,07,14,14,18,25.50
2014,07,14,14,19,25.60
2014,07,14,14,20,25.60
2014,07,14,14,21,25.60
2014,07,14,14,22,25.60
2014,07,14,14,23,25.60
2014,07,14,14,24,25.70
2014,07,14,14,25,25.70
2014,07,14,14,26,25.70
2014,07,14,14,27,25.70
2014,07,14,14,28,25.80
2014,07,14,14,29,25.70
2014,07,14,14,30,25.70
2014,07,14,14,31,25.70
2014,07,14,14,32,25.70
2014,07,14,14,33,25.70
2014,07,14,14,34,25.70
2014,07,14,14,35,25.70
2014,07,14,14,36,25.70
2014,07,14,14,37,25.70
2014,07,14,14,38,25.70
2014,07,14,14,39,25.70
2014,07,14,14,40,25.60
2014,07,14,14,41,25.60
2014,07,14,14,42,25.50
2014,07,14,14,43,25.40
2014,07,14,14,44,25.40
2014,07,14,14,45,25.50
2014,07,14,14,46,25.50
2014,07,14,14,47,25.60
2014,07,14,14,48,25.60
2014,07,14,14,49,25.60
2014,07,14,14,50,25.60
2014,07,14,14,51,25.70
2014,07,14,14,52,25.70
2014,07,14,14,53,25.70
2014,07,14,14,54,25.70
2014,07,14,14,55,25.80
2014,07,14,14,56,25.80
2014,07,14,14,57,25.70
2014,07,14,14,58,25.70
2014,07,14,14,59,25.60
2014,07,14,15,00,25.50
2014,07,14,15,01,25.40
2014,07,14,15,02,25.40
2014,07,14,15,03,25.30
2014,07,14,15,04,25.30
2014,07,14,15,05,25.20
2014,07,14,15,06,25.30
2014,07,14,15,07,25.30
2014,07,14,15,08,25.30
2014,07,14,15,09,25.30
2014,07,14,15,10,25.30
2014,07,14,15,11,25.20
2014,07,14,15,12,25.00
2014,07,14,15,13,24.90
2014,07,14,15,14,24.90
2014,07,14,15,15,24.90
2014,07,14,15,16,24.90
2014,07,14,15,17,24.90
2014,07,14,15,18,24.90
2014,07,14,15,19,24.80
2014,07,14,15,20,24.70
2014,07,14,15,21,24.60
2014,07,14,15,22,24.60
2014,07,14,15,23,24.50
2014,07,14,15,24,24.40
2014,07,14,15,25,24.40
2014,07,14,15,26,24.30
2014,07,14,15,27,24.30
2014,07,14,15,28,24.20
2014,07,14,15,29,24.20
2014,07,14,15,30,24.20
2014,07,14,15,31,24.20
2014,07,14,15,32,24.20
2014,07,14,15,33,24.10
2014,07,14,15,34,24.10
2014,07,14,15,35,24.10
2014,07,14,15,36,24.10
2014,07,14,15,37,24.10
2014,07,14,15,38,24.00
2014,07,14,15,39,24.00
2014,07,14,15,40,23.90
2014,07,14,15,41,23.80
2014,07,14,15,42,23.80
2014,07,14,15,43,23.70
2014,07,14,15,44,23.60
2014,07,14,15,45,23.60
2014,07,14,15,46,23.50
2014,07,14,15,47,23.40
2014,07,14,15,48,23.40
2014,07,14,15,49,23.40
2014,07,14,15,50,23.40
2014,07,14,15,51,23.40
2014,07,14,15,52,23.40
2014,07,14,15,53,23.40
2014,07,14,15,54,23.40
2014,07,14,15,55,23.40
2014,07,14,15,56,23.40
2014,07,14,15,57,23.50
2014,07,14,15,58,23.60
2014,07,14,15,59,23.60
2014,07,14,16,00,23.70
2014,07,14,16,01,23.70
2014,07,14,16,02,23.70
2014,07,14,16,03,23.70
2014,07,14,16,04,23.80
2014,07,14,16,05,23.80
2014,07,14,16,06,23.80
2014,07,14,16,07,23.80
2014,07,14,16,08,23.80
2014,07,14,16,09,23.80
2014,07,14,16,10,23.80
2014,07,14,16,11,23.80
2014,07,14,16,12,23.80
2014,07,14,16,13,23.80
2014,07,14,16,14,23.80
2014,07,14,16,15,23.80
2014,07,14,16,16,23.90
2014,07,14,16,17,23.90
2014,07,14,16,18,23.90
2014,07,14,16,19,23.90
2014,07,14,16,20,23.90
2014,07,14,16,21,23.90
2014,07,14,16,22,24.00
2014,07,14,16,23,24.00
2014,07,14,16,24,24.00
2014,07,14,16,25,23.90
2014,07,14,16,26,23.90
2014,07,14,16,27,23.80
2014,07,14,16,28,23.80
2014,07,14,16,29,23.80
2014,07,14,16,30,23.80
2014,07,14,16,31,23.80
2014,07,14,16,32,23.90
2014,07,14,16,33,23.90
2014,07,14,16,34,23.80
2014,07,14,16,35,23.80
2014,07,14,16,36,23.80
2014,07,14,16,37,23.80
2014,07,14,16,38,23.80
2014,07,14,16,39,23.80
2014,07,14,16,40,23.80
2014,07,14,16,41,23.80
2014,07,14,16,42,23.80
2014,07,14,16,43,23.80
2014,07,14,16,44,23.80
2014,07,14,16,45,23.70
2014,07,14,16,46,23.70
2014,07,14,16,47,23.70
2014,07,14,16,48,23.70
2014,07,14,16,49,23.70
2014,07,14,16,50,23.70
2014,07,14,16,51,23.70
2014,07,14,16,52,23.70
2014,07,14,16,53,23.60
2014,07,14,16,54,23.60
2014,07,14,16,55,23.50
2014,07,14,16,56,23.50
2014,07,14,16,57,23.40
2014,07,14,16,58,23.40
2014,07,14,16,59,23.30
2014,07,14,17,00,23.30
2014,07,14,17,01,23.30
2014,07,14,17,02,23.20
2014,07,14,17,03,23.20
2014,07,14,17,04,23.10
2014,07,14,17,05,23.10
2014,07,14,17,06,23.00
2014,07,14,17,07,22.90
2014,07,14,17,08,22.90
2014,07,14,17,09,22.80
2014,07,14,17,10,22.80
2014,07,14,17,11,22.70
2014,07,14,17,12,22.70
2014,07,14,17,13,22.60
2014,07,14,17,14,22.70
2014,07,14,17,15,22.60
2014,07,14,17,16,22.60
2014,07,14,17,17,22.60
2014,07,14,17,18,22.60
2014,07,14,17,19,22.60